THORAD DELTA 1 DEB

Satellite information

Favourite Embed

Satellite Type and Status

DEBRISIN ORBIT

Key statistics

Satellite THORAD DELTA 1 DEB at a glance.

Uptime

18656

Days in orbit

Revolutions

≈ 12.5

Per day

Orbit

SSO

Sun Synchronous Orbit

Inclination

102.0

Latest

Satellite identification and parameters

Extended collection of information and parameters for THORAD DELTA 1 DEB.

Object identification

Identified? True

Debris? True

Object name: THORAD DELTA 1 DEB

International designator: 1974-089AG

Object number (NORAD): 8166

Object ID (CCSDS): 8166

Country: UNITED STATES OF AMERICA (US)

Current information (Y/N): Y

RCS size: SMALL

Orbital parameters

Period: 115.052 minutes

Inclination: 102.0043 deg

SMA: 7835.92 km

Apoapsis: 1488.082 km

Periapsis: 1427.489 km

RAAN: 252.1348 deg

Eccentricy: 0.00386634

Argument of periapsis: 151.4231 deg

Mean anomaly: 0.6874 deg

Mean motion: 12.51606308 rev/day

Mean motion (dot): 0.00000053 rev/day2

B* drag term: 0.00063585423 1/REarth

Two-line elements (TLE)

Creation date: Nov. 19, 2025, 3:20 a.m.

Reference frame: TEME

Reference center: EARTH

Epoch: Sept. 19, 2025, 10:57 a.m. UTC

TLE line 0: 0 THORAD DELTA 1 DEB

TLE line 1: 1 08166U 74089AG 25262.45659552 .00000053 00000-0 63585-3 0 9995

TLE line 2: 2 08166 102.0043 252.1348 0038663 151.4231 0.6874 12.51606308320081

Live tracking on map

Real-time ground track for satellite THORAD DELTA 1 DEB.

In-orbit conjunctions

A list of the most updated potential collisions computed for object THORAD DELTA 1 DEB.

Target Orbit TCA Probability of collision Miss distance Type
ESSA 7 (TOS-E) SSO 2025-02-28 03:13:46 0.000138653 318.0 (m) PAYLOAD
COSMOS 1798 LEO 2025-01-19 13:40:37 0.0002623428 282.0 (m) PAYLOAD
COSMOS 1721 LEO 2025-01-07 18:28:21 0.0005787253 247.0 (m) PAYLOAD

Associated space launch

Meteorological satellite using radiometric imaging

THORAD DELTA 1 DEB was lifted into orbit during the mission ‘Delta 2310 | NOAA 4’, on board a Delta 2310 space rocket.

The launch took place on Nov. 15, 1974, 5:11 p.m. from Space Launch Complex 2W.

For more information about the launch, click the button.

Launch to space Delta 2310 | NOAA 4
Delta 2310 | NOAA 4

Agency: N/A

Status: Launch Successful

Launch date: Nov. 15, 1974, 5:11 p.m. UTC

Rocket: Delta 2310

Launch pad: Space Launch Complex 2W

Location: Vandenberg SFB, CA, USA

...

Latest news about this satellite

There are no fresh news available about this satellite. Check back as we update our databases every day.


Newsletter sign-up

Weekly statistics, charts and insights to help you stay on top of the space industry.